Location: Christchurch
(43.5330°S, 172.6330°E)
Time: 21:35:26
(UTC+13:00)

Cosmos 2322 - Visible Passes

Search period start: 17 October 2019 00:00
Search period end: 27 October 2019 00:00
Orbit: 839 x 856 km, 71.0° (Epoch: 16 October)

Date Brightness Start Highest point End Pass type
(mag) Time Alt. Az. Time Alt. Az. Time Alt. Az.
17 Oct 5.9 00:40:09 10° S 00:43:45 17° SE 00:44:05 17° SE visible
17 Oct 5.1 02:23:02 10° SSW 02:25:59 32° SSW 02:25:59 32° SSW visible
18 Oct 5.9 00:26:55 10° S 00:30:28 16° SE 00:30:50 16° SE visible
18 Oct 5.2 02:09:47 10° SSW 02:12:45 32° SSW 02:12:45 32° SSW visible
19 Oct 5.9 00:13:41 10° S 00:17:12 16° SE 00:17:39 16° SE visible
19 Oct 5.1 01:56:32 10° SSW 01:59:34 33° SSW 01:59:34 33° SSW visible
20 Oct 5.9 00:00:28 10° S 00:03:55 16° SE 00:04:29 16° SE visible
20 Oct 5.1 01:43:17 10° SSW 01:46:24 34° SSW 01:46:24 34° SSW visible
20 Oct 5.9 23:47:15 10° S 23:50:39 16° SE 23:51:21 15° SE visible
21 Oct 5.0 01:30:01 10° SSW 01:33:16 35° SSW 01:33:16 35° SSW visible
21 Oct 5.8 23:34:01 10° S 23:37:23 16° SE 23:38:15 15° SE visible
22 Oct 5.0 01:16:46 10° SSW 01:20:10 37° SSW 01:20:10 37° SSW visible
22 Oct 5.8 23:20:49 10° S 23:24:06 15° SE 23:25:10 15° SE visible
23 Oct 4.9 01:03:31 10° SSW 01:07:06 40° SSW 01:07:06 40° SSW visible
23 Oct 5.8 23:07:35 10° S 23:10:50 15° SE 23:12:07 14° ESE visible
24 Oct 4.8 00:50:16 10° SSW 00:54:02 42° SSW 00:54:02 42° SSW visible
24 Oct 5.8 22:54:22 10° S 22:57:33 15° SE 22:59:05 14° ESE visible
25 Oct 4.6 00:37:01 10° SSW 00:41:01 46° S 00:41:01 46° S visible
25 Oct 6.2 02:22:51 10° WSW 02:22:56 10° WSW 02:22:56 10° WSW visible
25 Oct 5.8 22:41:09 10° S 22:44:17 15° SE 22:46:05 13° ESE visible
26 Oct 4.5 00:23:46 10° SSW 00:28:00 50° S 00:28:00 50° S visible
26 Oct 6.1 02:09:32 10° WSW 02:09:56 11° WSW 02:09:56 11° WSW visible
26 Oct 5.8 22:27:57 10° S 22:31:01 14° SE 22:33:06 12° ESE visible
